TimeMST,TemperatureF,Dew PointF,Humidity,Sea Level PressureIn,VisibilityMPH,Wind Direction,Wind SpeedMPH,Gust SpeedMPH,PrecipitationIn,Events,Conditions,WindDirDegrees,DateUTC
12:55 AM,73.0,25.0,17,30.01,10.0,NNE,8.1,-,N/A,,Clear,20,2012-11-05 07:55:00
1:55 AM,72.0,24.1,17,30.01,10.0,NNE,6.9,-,N/A,,Clear,20,2012-11-05 08:55:00
2:55 AM,73.0,25.0,17,30.01,10.0,NNE,10.4,-,N/A,,Clear,20,2012-11-05 09:55:00
3:55 AM,72.0,24.1,17,29.99,10.0,NNE,5.8,-,N/A,,Clear,20,2012-11-05 10:55:00
4:55 AM,73.0,23.0,15,29.99,10.0,NNE,8.1,-,N/A,,Clear,20,2012-11-05 11:55:00
5:55 AM,66.0,26.1,22,30.01,10.0,Calm,Calm,-,N/A,,Clear,0,2012-11-05 12:55:00
6:55 AM,64.9,28.0,25,30.02,10.0,Calm,Calm,-,N/A,,Partly Cloudy,0,2012-11-05 13:55:00
7:55 AM,69.1,27.0,21,30.04,10.0,NE,12.7,-,N/A,,Clear,40,2012-11-05 14:55:00
8:55 AM,72.0,32.0,23,30.06,10.0,NNE,8.1,-,N/A,,Clear,30,2012-11-05 15:55:00
9:55 AM,78.1,30.9,18,30.06,10.0,NE,9.2,-,N/A,,Clear,40,2012-11-05 16:55:00
10:55 AM,82.9,30.0,15,30.05,10.0,NE,10.4,-,N/A,,Clear,40,2012-11-05 17:55:00
11:55 AM,88.0,28.0,12,30.04,10.0,NNE,12.7,-,N/A,,Clear,20,2012-11-05 18:55:00
12:55 PM,90.0,25.0,10,30.00,7.0,NNE,12.7,-,N/A,,Clear,20,2012-11-05 19:55:00
1:55 PM,91.9,24.1,9,29.98,7.0,North,8.1,-,N/A,,Clear,10,2012-11-05 20:55:00
2:55 PM,93.0,24.1,8,29.97,7.0,NNE,9.2,-,N/A,,Clear,20,2012-11-05 21:55:00
3:55 PM,93.0,25.0,9,29.96,7.0,North,6.9,-,N/A,,Clear,350,2012-11-05 22:55:00
4:55 PM,91.0,25.0,9,29.96,7.0,North,4.6,-,N/A,,Clear,350,2012-11-05 23:55:00
5:55 PM,84.9,26.1,12,29.96,7.0,NNW,5.8,-,N/A,,Clear,340,2012-11-06 00:55:00
6:55 PM,82.0,27.0,13,29.97,7.0,NNW,3.5,-,N/A,,Clear,340,2012-11-06 01:55:00
7:55 PM,78.1,30.0,17,29.97,7.0,Calm,Calm,-,N/A,,Clear,0,2012-11-06 02:55:00
8:55 PM,73.9,32.0,21,29.97,7.0,Calm,Calm,-,N/A,,Clear,0,2012-11-06 03:55:00
9:55 PM,71.1,34.0,26,29.98,7.0,Calm,Calm,-,N/A,,Clear,0,2012-11-06 04:55:00
10:55 PM,68.0,37.0,32,29.99,7.0,Calm,Calm,-,N/A,,Clear,0,2012-11-06 05:55:00
11:55 PM,66.0,36.0,33,29.98,7.0,Calm,Calm,-,N/A,,Clear,0,2012-11-06 06:55:00